This demonstration page uses our WeatherBlox Daily Observations layout. Learn more.

Left ArrowRight Arrow

39.92423, -83.80882

Hourly Observations for November 16, 2020

Temp ( °F °C ) Dew Point ( °F °C ) Humidity (%) Winds ( mph kmh ) Pressure ( in mb ) Visibility ( mi km ) Precip ( " mm )
12:56 am 00:56 Mostly Cloudy 43 6.1 30 -1.1 60 60 W 24 39 30.03 1017 10 16 N/A
1:56 am 01:56 Clear 41 5 29 -1.7 62 62 W 18 30 30.06 1018 10 16 N/A
2:56 am 02:56 Clear 39 3.9 29 -1.7 67 67 W 17 28 30.08 1019 10 16 N/A
3:56 am 03:56 Clear 38 3.3 28 -2.2 68 68 W 18 30 30.09 1019 10 16 N/A
4:56 am 04:56 Clear 36 2.2 28 -2.2 73 73 W 13 20 30.10 1019 10 16 N/A
5:56 am 05:56 Clear 35 1.7 27 -2.8 72 72 WSW 10 17 30.11 1020 10 16 N/A
6:56 am 06:56 Clear 35 1.7 27 -2.8 72 72 WSW 13 20 30.13 1020 10 16 N/A
7:56 am 07:56 Sunny 35 1.7 27 -2.8 72 72 WSW 12 19 30.15 1021 10 16 N/A
8:56 am 08:56 Sunny 38 3.3 27 -2.8 65 65 W 18 30 30.19 1022 10 16 N/A
9:56 am 09:56 Sunny 40 4.4 27 -2.8 60 60 W 18 30 30.19 1023 10 16 N/A
10:56 am 10:56 Sunny 43 6.1 27 -2.8 53 53 WSW 18 30 30.20 1023 10 16 N/A
11:56 am 11:56 Sunny 46 7.8 27 -2.8 47 47 W 18 30 30.19 1022 10 16 N/A
12:56 pm 12:56 Sunny 48 8.9 27 -2.8 44 44 W 20 31 30.16 1022 10 16 N/A
1:56 pm 13:56 Sunny 49 9.4 28 -2.2 44 44 WSW 21 33 30.16 1021 10 16 N/A
2:56 pm 14:56 Sunny 49 9.4 26 -3.3 41 41 W 21 33 30.14 1021 10 16 N/A
3:56 pm 15:56 Sunny 49 9.4 26 -3.3 41 41 W 14 22 30.13 1020 10 16 N/A
4:56 pm 16:56 Partly Cloudy 47 8.3 26 -3.3 44 44 WSW 7 11 30.11 1020 10 16 N/A
5:56 pm 17:56 Clear 43 6.1 26 -3.3 51 51 SSW 6 9 30.10 1019 10 16 N/A
6:56 pm 18:56 Clear 42 5.6 26 -3.3 53 53 SSW 7 11 30.11 1020 10 16 N/A
7:56 pm 19:56 Clear 40 4.4 26 -3.3 58 58 SSW 6 9 30.10 1019 10 16 N/A
8:56 pm 20:56 Partly Cloudy 43 6.1 26 -3.3 51 51 SSW 10 17 30.07 1018 10 16 N/A
9:56 pm 21:56 Cloudy 44 6.7 27 -2.8 51 51 SSW 14 22 30.05 1018 10 16 N/A
10:56 pm 22:56 Mostly Clear 44 6.7 28 -2.2 53 53 SW 13 20 30.03 1017 10 16 N/A
11:56 pm 23:56 Clear 43 6.1 28 -2.2 56 56 WSW 13 20 30.03 1017 10 16 N/A

Powered by AerisWeather